ES2JT Weather Reports


time (UTC)temp
F
wind
direction
speed
knots
gust
knots
rain 1hr
in
rain 24hr
in
rain mn
in
humidity
%
barometer
mb
20260906051512 54 15 7.8 12.2 0.00 0.00 0.00 82 1022.1
20260906050358 53 332 10.4 13.9 0.00 0.00 0.00 84 1021.7
20260906045712 53 308 12.2 13.9 0.00 0.00 0.00 85 1021.5
20260906044809 53 311 8.7 11.3 0.00 0.00 0.00 86 1021.4
20260906043658 53 358 8.7 12.2 0.00 0.00 0.00 87 1021.4
20260906042758 53 319 7.0 9.6 0.00 0.00 0.00 88 1021.1
20260906042111 53 336 7.8 9.6 0.00 0.00 0.00 88 1020.9
20260906040959 53 337 12.2 12.2 0.00 0.00 0.00 89 1021.0
20260906040058 53 326 8.7 12.2 0.00 0.00 0.00 89 1021.0
20260906035158 53 354 7.8 9.6 0.00 0.00 0.00 89 1020.7
20260906034510 53 354 8.7 9.6 0.00 0.00 0.00 89 1020.7
20260906033608 53 325 7.8 9.6 0.00 0.00 0.00 89 1020.2
20260906032500 53 318 8.7 9.6 0.00 0.00 0.00 90 1020.1
20260906031558 53 360 9.6 9.6 0.00 0.00 0.00 90 1020.1
20260906030658 53 357 6.1 7.0 0.00 0.00 0.00 89 1020.0
20260906025758 53 357 6.1 7.0 0.00 0.00 0.00 89 1020.1
20260906024858 53 335 6.1 7.0 0.00 0.00 0.00 89 1019.9
20260906024212 53 328 7.0 8.7 0.00 0.00 0.00 89 1019.7
20260906023058 53 39 7.8 8.7 0.00 0.00 0.00 89 1019.6
20260906022158 53 344 7.0 9.6 0.00 0.00 0.00 89 1019.3
20260906021258 54 332 6.1 9.6 0.00 0.00 0.00 88 1019.4
20260906020358 54 350 5.2 8.7 0.00 0.00 0.00 88 1019.2
20260906015459 54 298 7.0 7.0 0.00 0.00 0.00 88 1018.9
20260906014558 54 9 7.0 13.0 0.00 0.00 0.00 88 1019.0
20260906013658 54 347 7.0 7.8 0.00 0.00 0.00 88 1018.8
20260906012758 55 355 7.0 9.6 0.00 0.00 0.00 88 1018.7
20260906012108 55 348 6.1 9.6 0.00 0.00 0.00 89 1018.7
20260906010958 56 354 5.2 7.0 0.00 0.00 0.00 90 1018.6
20260906010308 56 352 6.1 10.4 0.00 0.00 0.00 90 1018.6
20260906005158 56 331 4.3 7.0 0.00 0.00 0.00 91 1018.6
20260906004258 56 325 5.2 7.0 0.00 0.00 0.00 91 1018.5
20260906003359 56 336 3.5 6.1 0.00 0.00 0.00 92 1018.1
20260906002459 55 360 3.5 3.5 0.00 0.00 0.00 92 1018.2
20260906001558 55 315 3.5 3.5 0.00 0.00 0.00 89 1017.9
20260906000658 55 315 3.5 3.5 0.00 0.00 0.00 89 1018.1
20260905235759 55 315 3.5 3.5 0.00 0.00 0.00 89 1018.1
20260905235112 55 315 3.5 3.5 0.00 0.00 0.00 89 1017.9
20260905233958 55 315 3.5 3.5 0.00 0.00 0.00 89 1017.7
20260905233058 55 359 2.6 3.5 0.00 0.00 0.00 89 1017.8
20260905232157 55 355 2.6 3.5 0.00 0.00 0.00 89 1017.7
20260905231258 56 278 3.5 5.2 0.00 0.00 0.00 89 1017.5
20260905230608 56 337 4.3 5.2 0.00 0.00 0.00 89 1017.6
20260905225459 55 333 4.3 5.2 0.00 0.00 0.00 87 1017.4
20260905224558 56 325 2.6 3.5 0.00 0.00 0.00 87 1017.2
20260905223659 57 322 4.3 6.1 0.00 0.00 0.00 86 1017.4
20260905222758 57 337 3.5 6.1 0.00 0.00 0.00 85 1017.2
20260905221858 57 327 4.3 7.8 0.00 0.00 0.00 83 1017.0
20260905221212 58 325 4.3 7.8 0.00 0.00 0.00 83 1016.8
20260905220310 58 323 4.3 7.0 0.00 0.00 0.00 82 1017.2
20260905215158 58 314 5.2 7.0 0.00 0.00 0.00 82 1016.9
20260905214258 58 333 4.3 6.1 0.00 0.00 0.00 82 1016.8
20260905213611 58 338 4.3 5.2 0.00 0.00 0.00 82 1016.8
20260905212459 58 299 3.5 4.3 0.00 0.00 0.00 82 1016.5
20260905211558 58 299 4.3 6.1 0.00 0.00 0.00 83 1016.6
20260905210659 58 312 3.5 4.3 0.00 0.00 0.00 84 1016.5
20260905210011 58 334 4.3 4.3 0.00 0.00 0.00 86 1016.3
20260905204858 57 317 3.5 5.2 0.00 0.00 0.00 90 1016.3
20260905203959 56 340 3.5 3.5 0.00 0.00 0.00 92 1016.2
20260905203058 56 315 3.5 3.5 0.00 0.00 0.00 93 1016.1
20260905202158 55 270 1.7 1.7 0.00 0.00 0.00 88 1016.1
20260905201258 55 270 1.7 1.7 0.00 0.00 0.00 88 1016.0
20260905200610 55 270 1.7 1.7 0.00 0.00 0.00 88 1016.0
20260905195459 55 270 1.7 1.7 0.00 0.00 0.00 88 1015.9
20260905194558 55 270 1.7 1.7 0.00 0.00 0.00 88 1015.7
20260905193658 55 270 1.7 1.7 0.00 0.00 0.00 88 1015.9
20260905192758 55 270 1.7 1.7 0.00 0.00 0.00 88 1015.6
20260905192112 55 270 1.7 1.7 0.00 0.00 0.00 88 1015.7
20260905190959 55 270 1.7 1.7 0.00 0.00 0.00 88 1015.8
20260905190058 55 270 1.7 1.7 0.00 0.00 0.00 88 1015.8
20260905185158 55 259 1.7 1.7 0.00 0.00 0.00 88 1015.6
20260905184258 55 257 0.9 1.7 0.00 0.00 0.00 88 1015.4
20260905183608 55 267 1.7 2.6 0.00 0.00 0.00 87 1015.7
20260905182459 56 260 0.9 1.7 0.00 0.00 0.00 86 1015.5
20260905181558 56 251 2.6 4.3 0.00 0.00 0.00 85 1015.4
20260905180658 57 219 2.6 3.5 0.00 0.00 0.00 84 1015.5
20260905175757 57 249 3.5 3.5 0.00 0.00 0.00 83 1015.5
20260905174858 57 230 2.6 3.5 0.00 0.00 0.00 81 1015.4
20260905173959 58 259 3.5 5.2 0.00 0.00 0.00 81 1015.3
20260905173059 58 263 2.6 4.3 0.00 0.00 0.00 79 1015.3
20260905172158 59 274 3.5 4.3 0.00 0.00 0.00 78 1015.4
20260905171258 59 273 3.5 5.2 0.00 0.00 0.00 77 1015.1
20260905170612 59 274 3.5 6.1 0.00 0.00 0.00 74 1015.3
20260905165459 60 281 4.3 6.1 0.00 0.00 0.00 73 1015.2
20260905164558 60 293 5.2 7.0 0.00 0.00 0.00 73 1015.0
20260905163658 60 296 5.2 7.0 0.00 0.00 0.00 73 1014.9
20260905162758 61 281 5.2 7.0 0.00 0.00 0.00 71 1014.7
20260905162108 61 276 5.2 7.0 0.00 0.00 0.00 70 1015.0
20260905160957 62 292 6.1 11.3 0.00 0.00 0.00 70 1014.9
20260905160058 62 302 6.1 9.6 0.00 0.00 0.00 68 1014.8
20260905155411 62 310 5.2 9.6 0.00 0.00 0.00 67 1014.4
20260905154258 62 304 6.1 7.8 0.00 0.00 0.00 66 1014.3
20260905153357 63 302 5.2 7.8 0.00 0.00 0.00 65 1014.3
20260905152459 63 304 6.1 8.7 0.00 0.00 0.00 64 1014.2
20260905151557 63 300 5.2 7.8 0.00 0.00 0.00 65 1014.2
20260905150907 63 284 5.2 7.0 0.00 0.00 0.00 63 1014.1
20260905145758 63 293 7.0 9.6 0.00 0.00 0.00 62 1013.9
20260905144857 63 312 7.0 9.6 0.00 0.00 0.00 61 1013.9
20260905143959 64 303 6.1 9.6 0.00 0.00 0.00 60 1014.1
20260905143058 65 293 5.2 7.8 0.00 0.00 0.00 64 1014.0
20260905142409 64 298 6.1 7.8 0.00 0.00 0.00 64 1013.9
20260905141257 65 300 7.0 9.6 0.00 0.00 0.00 63 1013.8
20260905140358 65 305 8.7 13.0 0.00 0.00 0.00 62 1013.5
20260905135459 65 295 7.8 9.6 0.00 0.00 0.00 60 1013.6
20260905134557 66 298 7.0 9.6 0.00 0.00 0.00 60 1013.4
20260905133657 66 302 7.0 9.6 0.00 0.00 0.00 62 1013.4
20260905132758 66 287 5.2 10.4 0.00 0.00 0.00 63 1013.4
20260905131859 65 314 5.2 7.0 0.00 0.00 0.00 62 1013.7
20260905130959 66 295 6.1 9.6 0.00 0.00 0.00 58 1013.4
20260905130058 67 305 5.2 9.6 0.00 0.00 0.00 59 1013.4
20260905125158 67 291 6.1 9.6 0.00 0.00 0.00 57 1013.2
20260905124259 67 300 6.1 9.6 0.00 0.00 0.00 57 1013.4
20260905123357 67 314 5.2 7.8 0.00 0.00 0.00 60 1013.3
20260905122709 66 320 7.0 9.6 0.00 0.00 0.00 60 1013.1
20260905121558 66 313 7.0 9.6 0.00 0.00 0.00 62 1013.4
20260905120657 65 329 6.1 9.6 0.00 0.00 0.00 64 1013.2
20260905120011 65 322 5.2 9.6 0.00 0.00 0.00 64 1013.2
20260905114858 65 292 5.2 7.8 0.00 0.00 0.00 63 1013.0
20260905113958 67 307 6.1 7.0 0.00 0.00 0.00 58 1013.0
20260905113057 66 307 6.1 8.7 0.00 0.00 0.00 56 1013.0
20260905112158 65 326 7.0 8.7 0.00 0.00 0.00 59 1012.8
20260905111258 65 320 6.1 8.7 0.00 0.00 0.00 60 1012.6
20260905110358 66 328 7.0 8.7 0.00 0.00 0.00 62 1012.8
20260905105459 66 309 7.0 9.6 0.00 0.00 0.00 64 1012.6
20260905104558 65 299 6.1 9.6 0.00 0.00 0.00 65 1012.5
20260905103658 66 333 5.2 7.0 0.00 0.00 0.00 65 1012.3
20260905102758 66 323 4.3 7.0 0.00 0.00 0.00 64 1012.1
20260905101858 67 301 3.5 7.0 0.00 0.00 0.00 61 1012.2
20260905100959 67 334 3.5 5.2 0.00 0.00 0.00 61 1012.4
20260905100058 67 340 4.3 5.2 0.00 0.00 0.00 61 1012.3
20260905095158 70 51 4.3 7.0 0.00 0.00 0.00 55 1011.9
20260905094258 72 44 5.2 7.0 0.00 0.00 0.00 50 1012.0
20260905093359 74 49 6.1 7.0 0.00 0.00 0.00 54 1012.0
20260905092458 72 82 6.1 7.0 0.00 0.00 0.00 54 1012.0
20260905091808 71 63 5.2 6.1 0.00 0.00 0.00 57 1011.7
20260905090657 69 7 3.5 3.5 0.00 0.00 0.00 60 1011.7
20260905085758 68 35 3.5 3.5 0.00 0.00 0.00 60 1011.8
20260905084857 68 107 4.3 4.3 0.00 0.00 0.00 56 1011.5
20260905083958 69 350 3.5 3.5 0.00 0.00 0.00 59 1011.7
20260905083058 69 27 3.5 3.5 0.00 0.00 0.00 59 1011.6
20260905082158 69 56 4.3 4.3 0.00 0.00 0.00 58 1011.5
20260905081258 68 47 3.5 3.5 0.00 0.00 0.00 59 1011.5
20260905080358 67 28 3.5 3.5 0.00 0.00 0.00 61 1011.6
20260905075500 68 59 3.5 4.3 0.00 0.00 0.00 62 1011.4
20260905074557 68 50 3.5 3.5 0.00 0.00 0.00 62 1011.3
20260905073658 68 41 3.5 4.3 0.00 0.00 0.00 61 1011.6
20260905073007 70 70 3.5 4.3 0.00 0.00 0.00 59 1011.3
20260905071858 71 38 3.5 4.3 0.00 0.00 0.00 60 1011.2
20260905070958 69 74 2.6 3.5 0.00 0.00 0.00 70 1011.4
20260905070309 67 51 1.7 3.5 0.00 0.00 0.00 72 1011.1
20260905065158 68 59 2.6 3.5 0.00 0.00 0.00 72 1011.1
20260905064508 68 61 1.7 2.6 0.00 0.00 0.00 76 1010.9
20260905063358 65 78 0.9 2.6 0.00 0.00 0.00 88 1010.9
20260905062459 64 0 0.0 0.0 0.00 0.00 0.00 91 1011.0
20260905061559 62 0 0.0 0.0 0.00 0.00 0.00 94 1010.9
20260905060657 59 0 0.0 0.0 0.00 0.00 0.00 95 1010.8
20260905055758 58 0 0.0 0.0 0.00 0.00 0.00 96 1010.6
20260905054858 58 0 0.0 0.0 0.00 0.00 0.00 96 1010.7
20260905053959 58 0 0.0 0.0 0.00 0.00 0.00 97 1010.8
20260905053057 57 0 0.0 0.0 0.00 0.00 0.00 98 1010.8
20260905052158 56 0 0.0 0.0 0.00 0.00 0.00 98 1010.8